Hourly Data Report for October 24, 2014

All times are specified in Local Standard Time (LST). Add 1 hour to adjust for Daylight Saving Time where and when it is observed.

RANKIN INLET A
NUNAVUT

62°48'38.000" N
92°06'53.000" W
32.30 m
2303405
71083
YRT

Download Data

Hourly Data (October 2014)
Hourly Data Report for October 24, 2014
Temp Definition
°C
Dew Point Temp Definition
°C
Rel Hum Definition
%
Wind Dir Definition
10's deg

Wind Spd Definition
km/h
Visibility Definition
km
Stn Press Definition
kPa
Hmdx Definition


Wind Chill Definition


Weather Definition


TIME
00:00 Legend Double Dagger -1.8 -5.8 74 12 44 24.1 101.63   -10 Cloudy
01:00 Legend Double Dagger -2.0 -6.4 72 11 41 24.1 101.58   -10 LegendNANA
02:00 Legend Double Dagger -2.0 -6.0 74 11 39 24.1 101.55   -10 LegendNANA
03:00 Legend Double Dagger -2.0 -6.2 73 11 46 24.1 101.47   -11 Cloudy
04:00 Legend Double Dagger -2.0 -5.9 75 11 40 24.1 101.38   -10 LegendNANA
05:00 Legend Double Dagger -1.9 -5.9 74 12 47 24.1 101.35   -11 LegendNANA
06:00 Legend Double Dagger -1.7 -5.7 74 11 45 24.1 101.28   -10 Cloudy
07:00 Legend Double Dagger -1.5 -5.4 75 11 47 24.1 101.22   -10 LegendNANA
08:00 Legend Double Dagger -1.4 -5.3 75 10 40 24.1 101.14   -9 LegendNANA
09:00 Legend Double Dagger -1.2 -4.9 76 11 46 24.1 101.03   -9 Cloudy
10:00 Legend Double Dagger -0.9 -4.6 76 11 48 24.1 100.98   -9 LegendNANA
11:00 Legend Double Dagger -0.9 -4.8 75 10 45 19.3 100.91   -9 LegendNANA
12:00 Legend Double Dagger -0.9 -5.1 73 11 53 19.3 100.84   -10 Mostly Cloudy
13:00 Legend Double Dagger -0.7 -4.4 76 11 43 19.3 100.77   -9 LegendNANA
14:00 Legend Double Dagger -0.8 -4.5 76 10 41 19.3 100.68   -9 LegendNANA
15:00 Legend Double Dagger -0.7 -4.6 75 10 47 19.3 100.62   -9 Mostly Cloudy
16:00 Legend Double Dagger -0.7 -4.4 76 10 44 19.3 100.57   -9 LegendNANA
17:00 Legend Double Dagger -0.7 -4.6 75 9 47 19.3 100.49   -9 LegendNANA
18:00 Legend Double Dagger -0.7 -4.8 74 9 45 19.3 100.48   -9 Cloudy
19:00 Legend Double Dagger -0.8 -4.5 76 9 48 19.3 100.43   -9 LegendNANA
20:00 Legend Double Dagger -1.0 -4.5 77 9 51 24.1 100.37   -10 LegendNANA
21:00 Legend Double Dagger -1.1 -4.6 77 9 48 24.1 100.29   -9 Cloudy
22:00 Legend Double Dagger -1.2 -4.7 77 9 45 24.1 100.18   -9 LegendNANA
23:00 Legend Double Dagger -1.1 -4.5 78 9 49 24.1 100.21   -10 LegendNANA

Notes on Data Quality.

Legend

  • E = Estimated
  • M = Missing
  • NA = Not Available
  • ‡ = Partner data that is not subject to review by the National Climate Archives
Date modified: